Tracking 19969 objects as of 12-Nov-2019
Live streaming from Space Station
objects crossing your sky now
Track the group of recently launched Starlink satellites

INSAT 2B

Track INSAT 2B now!
INSAT 2B is classified as:


NORAD ID: 22724
Int'l Code: 1993-048B
Perigee: 35,823.1 km
Apogee: 35,925.9 km
Inclination: 13.6 °
Period: 1,440.2 minutes
Semi major axis: 42245 km
RCS: 19.9526 m2 (large)
Launch date: July 22, 1993
Source: India (IND)
Launch site: FRENCH GUIANA (FRGUI)

Second of Spain's communications satellites; 15 multi-frequency transponders
aabbcc
Your satellite tracking list
Your tracking list is empty




NASA's NSSDC Master Catalog

Two Line Element Set (TLE):
1 22724U 93048B   19315.96727487 -.00000209  00000-0  00000+0 0  9991
2 22724  13.5891  21.1305 0012162 171.2968 185.7042  0.99984392 96504
Source of the keplerian elements: AFSPC